Theta_e
339 345 349 352 350 350 352 349 349 351 349 346 345 344 343 342 341 339 340 342 342 343 344 344 345 343 345 343 341 340 340 339 339 339 340 340 341 342 343 343 344 344 347
343 347 348 351 352 352 351 351 351 351 349 346 344 343 342 341 340 339 338 338 340 341 343 343 343 343 344 342 341 339 338 337 337 336 335 338 339 338 339 339 341 342 345
343 348 349 350 352 352 353 350 349 351 348 345 343 343 341 340 339 338 337 337 339 339 340 342 341 343 343 342 340 339 338 336 335 334 335 333 333 336 337 336 336 338 341
345 348 349 347 352 352 352 351 351 350 349 344 343 341 340 339 338 336 335 335 336 338 339 340 342 344 342 341 339 338 336 334 333 332 330 331 331 335 335 335 335 336 336
346 348 349 347 351 352 352 351 350 350 349 345 342 341 339 338 335 334 333 333 334 337 338 340 342 341 339 338 337 335 333 331 330 329 330 330 331 332 334 334 333 333 334
346 347 345 347 350 351 351 350 350 349 348 346 341 340 338 336 334 332 330 331 332 335 336 339 341 339 336 335 334 332 329 327 326 327 328 330 330 334 334 333 332 332 333
345 346 347 346 348 350 350 349 349 348 347 345 341 340 338 337 334 330 328 328 329 332 334 336 335 333 330 328 327 326 324 322 321 323 326 329 329 333 334 333 332 332 331
343 345 346 340 342 345 347 347 347 347 346 345 341 340 339 337 335 330 327 325 328 329 331 331 330 327 324 322 322 322 320 318 318 321 325 327 331 333 333 333 332 331 331
341 342 344 345 342 337 340 342 343 344 344 343 342 341 339 337 336 331 330 327 325 325 326 326 325 322 320 319 319 319 319 317 318 320 322 325 330 331 331 331 332 334 334
334 339 341 343 343 344 343 335 337 339 340 340 339 336 333 333 332 330 329 329 326 324 323 322 320 319 318 317 318 317 316 318 320 321 323 324 327 328 328 328 328 328 330
320 326 335 340 341 341 341 337 333 334 335 335 333 330 328 332 330 328 327 328 327 323 321 320 319 318 316 315 315 314 314 316 319 322 324 326 326 327 327 326 326 326 326
319 317 325 332 339 339 338 338 339 339 340 340 336 333 334 331 330 328 325 325 326 324 322 320 317 312 309 308 309 311 312 313 313 314 320 326 328 330 330 328 327 325 326
318 315 316 320 323 336 337 338 338 337 337 340 337 336 333 330 329 326 324 321 318 316 316 314 312 310 309 308 308 309 309 308 308 310 316 322 324 327 328 328 328 328 326
312 315 314 315 317 320 325 334 338 335 338 336 336 334 332 331 328 325 323 320 317 316 314 313 311 310 307 305 306 305 304 304 305 307 310 314 320 322 325 325 324 323 323
311 311 312 313 314 315 317 321 333 334 335 337 335 333 330 328 327 325 322 320 317 316 314 311 309 306 304 303 301 300 298 298 299 300 305 309 315 318 320 321 321 320 320
308 309 310 310 313 314 316 318 329 333 333 334 333 333 330 329 327 324 321 318 317 314 313 310 306 302 300 299 296 295 293 293 294 295 297 303 308 311 313 316 317 318 318
305 306 307 309 313 314 314 317 326 328 328 329 332 332 331 329 328 323 319 317 316 312 310 307 303 301 297 294 293 292 292 291 291 291 291 293 297 304 308 312 313 313 313
303 304 306 309 312 314 314 320 321 324 323 324 327 331 330 329 327 323 318 315 313 309 308 307 301 299 295 292 291 290 290 290 290 289 290 290 291 294 303 305 306 307 308
303 304 305 309 311 315 316 317 317 318 317 317 319 324 327 325 323 321 317 312 311 306 304 303 300 297 291 290 289 289 288 288 288 288 288 289 290 290 293 297 298 299 303
301 303 305 308 310 312 312 311 310 309 309 311 312 314 319 321 320 316 314 309 307 303 301 301 298 295 291 289 287 286 287 287 287 287 287 288 288 288 288 288 288 291 297
300 301 303 307 309 309 309 308 307 306 304 304 306 308 310 313 313 313 310 305 302 301 301 299 296 292 289 289 287 286 286 286 285 286 286 286 286 287 287 286 285 286 287
299 301 303 306 308 308 310 309 307 303 299 300 300 301 304 307 311 309 307 302 300 298 298 297 294 292 290 291 288 288 285 287 285 284 285 285 285 286 285 284 284 284 285
297 300 302 306 307 308 306 300 297 298 297 296 296 297 297 301 303 304 303 300 297 300 298 297 295 293 289 288 291 293 288 288 287 286 283 283 284 284 284 283 283 282 283
297 300 303 306 306 307 300 302 302 302 299 298 297 295 294 296 299 297 295 294 295 298 297 297 295 293 292 289 286 284 286 290 287 281 283 282 283 283 283 283 282 281 282
297 300 303 305 305 305 301 304 304 304 302 297 293 292 291 291 292 293 292 290 291 294 296 294 290 289 293 288 287 284 284 283 283 283 279 280 281 282 283 283 282 281 281
296 300 302 304 304 300 301 301 304 304 294 293 291 291 290 289 288 287 287 286 287 290 291 291 288 289 288 287 286 285 284 284 282 281 280 279 280 281 282 283 282 281 281
Wind_Speed
6 7 10 11 11 10 11 12 14 15 14 15 15 15 15 15 15 15 15 15 15 16 15 16 16 17 18 20 21 21 21 21 21 21 21 20 20 21 21 21 17 18 22
11 9 11 12 13 11 11 12 12 14 13 14 14 14 14 15 14 16 14 15 15 15 15 15 15 15 19 19 20 20 20 20 20 19 16 17 19 21 22 21 20 18 21
12 10 12 11 13 13 12 12 11 13 14 14 14 14 14 14 15 15 15 15 15 14 15 15 16 13 19 20 19 20 20 20 20 19 16 13 16 21 21 21 21 20 21
12 10 11 11 12 12 12 12 11 14 14 13 14 13 14 15 15 15 15 15 15 14 15 16 14 18 20 19 20 21 20 20 19 17 13 13 14 21 21 22 22 22 20
11 10 10 11 13 13 12 12 12 13 14 14 13 13 14 15 15 15 15 15 15 16 16 14 17 19 19 20 20 20 20 19 18 16 14 13 13 18 21 22 21 22 20
11 10 10 11 13 12 11 12 12 12 14 16 13 13 14 15 14 15 15 16 16 16 17 16 19 19 20 20 20 19 19 18 16 14 13 13 14 19 21 22 22 22 20
12 10 11 10 12 13 12 11 12 13 14 15 14 14 15 15 15 15 16 16 16 17 17 18 19 19 20 19 20 19 19 18 13 13 11 12 14 19 21 21 22 22 23
12 11 10 11 11 12 13 12 12 13 15 16 15 15 14 15 15 16 16 16 17 17 18 19 19 20 20 21 21 20 19 16 13 13 12 12 16 20 21 20 20 21 22
6 7 10 11 11 11 12 11 11 13 13 16 15 14 13 13 14 15 15 17 18 18 19 19 19 20 21 22 21 21 20 18 13 10 12 10 17 21 20 21 22 23 22
4 4 7 10 9 9 8 11 11 12 13 13 13 12 12 12 12 12 12 16 19 19 19 19 20 21 22 22 21 19 17 17 13 12 11 10 19 21 21 22 21 20 21
3 4 4 8 9 8 7 10 12 14 15 15 13 13 11 9 11 11 12 16 19 19 20 20 20 21 22 21 20 18 16 9 12 9 8 15 18 20 21 21 22 22 21
6 4 4 4 9 8 4 5 6 7 7 9 9 10 5 7 7 9 10 14 17 19 20 20 21 19 15 9 8 14 9 12 10 10 8 19 23 23 23 23 22 21 23
6 5 5 4 3 5 5 4 3 3 4 6 10 8 6 6 6 5 5 5 6 9 8 11 11 9 12 9 10 9 11 11 9 9 14 20 22 22 22 21 24 28 27
7 8 7 6 4 4 2 2 3 4 5 6 8 10 7 5 6 6 5 5 6 4 8 8 7 11 13 13 13 13 13 10 8 8 14 20 21 22 24 25 26 27 27
8 7 8 6 5 4 4 3 2 4 6 8 8 9 8 7 6 6 6 5 6 6 6 8 8 9 12 13 12 14 13 12 12 8 8 21 21 23 25 24 24 24 25
7 8 7 7 5 5 5 5 5 3 4 7 8 10 10 8 7 7 7 6 6 6 6 7 9 9 9 10 12 12 13 12 11 11 8 11 22 23 23 23 23 24 24
7 6 8 7 6 5 5 5 5 4 3 5 8 12 12 10 10 9 8 7 8 6 12 10 11 10 9 10 12 11 10 12 11 11 9 8 10 22 22 24 24 24 24
7 9 7 6 7 6 6 5 4 4 3 3 5 8 12 12 12 11 8 8 8 6 8 9 9 10 9 8 10 9 9 10 11 11 10 8 8 8 16 23 24 23 22
10 9 9 9 9 8 7 5 4 5 3 3 1 5 11 11 11 9 8 9 10 9 6 9 8 10 10 10 10 8 8 8 9 9 11 11 11 10 8 19 22 22 21
9 9 8 8 9 8 5 4 3 2 2 2 2 2 7 9 12 10 8 10 9 9 7 8 13 8 10 11 11 10 8 7 7 7 8 8 10 11 10 11 9 11 20
9 11 11 11 10 9 6 5 4 4 2 2 2 3 5 8 10 12 10 10 9 10 12 12 12 16 10 11 10 9 8 8 8 6 6 7 9 9 10 9 8 7 7
14 13 12 13 13 10 7 5 3 3 1 2 2 2 3 6 10 10 12 12 11 9 11 13 14 10 7 7 6 5 5 3 5 5 5 5 7 6 8 10 10 11 8
14 17 15 15 14 11 9 7 4 5 3 2 2 2 2 5 7 10 11 12 10 10 12 14 13 12 11 5 7 3 5 4 6 2 4 4 5 5 6 8 10 10 9
16 11 12 13 14 11 12 10 10 6 6 4 4 3 3 3 6 9 8 10 11 8 12 12 11 9 10 8 3 1 2 5 5 5 3 2 3 5 6 6 7 7 8
10 13 13 13 13 12 11 11 9 7 4 5 4 6 4 3 3 6 11 9 9 7 10 13 10 9 6 6 4 4 2 2 3 4 5 5 2 3 4 4 4 5 6
7 10 12 14 14 13 14 11 12 11 9 8 6 6 4 3 3 3 6 7 7 9 11 10 8 9 8 5 4 4 4 3 3 3 4 3 3 3 3 3 3 4 4
Wind_Direction
179 169 156 155 151 146 141 136 122 116 111 103 97 89 84 79 78 77 78 76 78 78 78 77 77 77 84 80 76 73 69 67 62 61 61 61 59 54 51 42 43 47 49
151 162 153 153 153 152 142 128 121 118 107 98 92 87 85 84 81 79 75 76 75 77 77 77 77 74 96 87 82 78 73 70 65 61 55 62 59 56 54 50 47 46 43
153 157 155 152 151 150 141 136 133 125 114 105 99 92 87 86 87 85 80 80 80 78 81 80 79 75 95 88 83 77 72 69 63 56 51 59 62 58 56 54 52 49 47
154 154 150 147 148 146 141 139 137 128 121 107 103 98 95 91 85 86 83 81 84 84 85 84 84 87 86 87 81 77 71 65 61 55 56 56 60 59 57 55 53 51 50
152 153 153 149 150 147 144 144 143 135 128 115 109 104 99 94 89 85 84 82 82 83 82 84 86 86 89 86 79 75 69 66 60 62 59 58 61 61 59 59 57 53 49
154 156 157 154 148 148 148 148 146 143 133 119 115 110 102 97 93 90 90 85 85 87 86 85 85 84 86 79 78 74 73 68 67 63 58 56 63 65 63 63 59 56 52
159 162 163 156 154 153 152 153 150 144 133 125 125 118 109 103 98 94 90 89 90 91 92 88 88 85 82 80 77 75 70 62 63 57 55 61 65 64 64 63 61 60 56
165 170 169 168 162 162 159 157 154 146 140 130 131 123 114 107 101 97 95 94 93 91 89 88 85 82 80 78 78 75 68 63 63 59 54 60 57 63 62 60 63 61 57
183 168 174 174 174 171 165 160 157 150 144 135 134 126 117 111 105 102 99 97 94 92 88 85 84 84 82 80 77 73 67 60 64 57 56 58 59 64 58 56 53 58 59
140 168 174 172 176 178 169 157 156 152 146 140 135 130 123 113 107 105 99 101 98 94 93 92 90 88 85 83 82 77 67 62 61 60 64 62 64 64 64 64 57 56 56
141 162 159 178 176 173 163 164 165 160 158 151 147 144 140 131 122 116 109 106 103 100 97 95 94 93 89 83 78 72 68 61 60 57 56 61 70 70 69 67 65 65 62
175 175 166 168 172 168 153 158 162 166 163 158 155 156 143 132 125 116 101 103 107 105 103 100 97 90 85 82 74 66 67 65 58 51 44 55 60 63 62 63 62 64 67
172 168 172 153 149 165 159 163 168 156 147 153 154 152 133 126 128 121 116 106 94 96 103 99 95 85 86 87 80 75 72 64 60 49 40 57 61 64 69 71 67 64 63
179 178 170 167 171 166 159 180 177 165 168 157 162 153 151 145 142 136 122 118 106 99 103 95 90 95 87 83 82 79 73 72 65 56 48 48 63 65 63 60 61 59 61
194 188 187 174 179 185 188 191 192 169 176 170 168 164 159 155 156 138 131 126 123 117 109 108 100 93 90 85 82 84 80 77 73 71 59 53 58 65 65 66 67 67 63
190 196 183 195 196 190 200 195 201 208 180 176 175 173 167 160 157 147 138 130 130 125 117 110 109 104 96 91 83 84 87 82 78 77 73 62 67 69 71 69 67 65 61
200 184 193 193 195 202 213 215 203 191 195 180 178 173 171 166 162 151 141 136 137 133 122 117 108 104 101 98 91 86 86 85 81 76 74 74 58 63 68 70 67 64 61
182 188 181 186 190 196 199 196 207 187 179 188 170 174 173 169 161 154 145 141 133 118 126 126 124 114 107 102 104 95 90 87 82 75 71 70 72 65 63 69 66 63 60
194 180 190 188 186 188 178 162 170 172 156 151 202 160 171 160 158 151 151 142 143 130 142 130 124 125 118 110 104 94 84 85 83 84 78 75 73 76 73 66 64 60 58
189 188 182 181 178 170 149 135 129 126 140 129 152 157 156 158 156 144 143 143 146 134 141 129 126 119 119 119 107 89 80 78 82 82 83 80 75 75 77 71 64 55 56
189 187 186 178 176 164 162 163 173 174 165 143 146 143 139 147 150 150 143 147 151 153 148 142 128 131 122 130 112 95 78 74 77 79 82 85 84 83 83 72 67 62 49
191 189 184 187 177 180 175 164 147 137 133 115 142 148 144 148 158 153 154 150 159 141 139 147 145 141 130 178 135 124 144 131 78 65 75 84 91 96 85 76 70 62 55
191 191 189 187 180 178 152 127 98 95 90 124 137 179 150 152 141 153 155 153 159 158 161 161 159 155 159 193 207 139 151 168 145 153 82 103 108 100 100 85 70 60 53
205 186 180 183 176 176 159 171 175 177 163 184 168 141 126 142 166 136 138 153 158 169 160 164 162 160 154 161 143 115 32 129 164 157 181 132 115 113 105 89 77 63 52
177 179 177 176 181 173 176 187 187 181 158 137 126 130 138 125 120 155 149 157 156 167 154 160 160 157 157 148 155 157 132 84 98 145 157 169 160 119 109 111 102 78 55
154 173 178 181 182 171 182 181 190 179 149 149 148 158 159 139 116 119 127 139 153 152 156 157 151 158 158 149 155 155 159 157 160 144 126 149 153 138 143 142 116 84 53